Notices

What's New in latest Release from April 7th, 2021:

- Updated Glossary, including Speed of Maximum Gust, and Total Hourly Precipitation

- Updated national and regional climate services offices contacts and prices information

- Addition of station inventory lists for 1981-2010, 1971-2000, and 1961-1990 Normals.

If you haven't already, please take our survey and provide feedback about our website: https://eccc.sondage-survey.ca/f/LanguageSelection.aspx?s=442ca660-fcf1-47c0-95a9-59707d6fd709

Hourly Data Report for November 09, 2020

SHEARWATER RCS
NOVA SCOTIA
Current Station Operator: ECCC - MSC

44°37'47.000" N
63°30'48.000" W
24.00 m
8205092
71264
AAW

Download Data

Hourly Data (November 2020)
Hourly Data Report for November 9, 2020
TIME
LST
Temp Definition
°C
Dew Point Definition
°C
Rel Hum Definition
%
Precip. Amount Definition
mm

Wind Dir Definition
10's deg

Wind Spd Definition
km/h
Visibility Definition
km
Stn Press Definition
kPa
Hmdx Definition


Wind Chill Definition


Weather Definition


00:00 8.6 6.1 84 0.0 23 6   102.53     LegendNANA
01:00 8.3 5.9 85 0.0 16 5   102.46     LegendNANA
02:00 8.4 6.5 88 0.0 21 3   102.43     LegendNANA
03:00 8.1 6.7 91 0.0 23 4   102.38     LegendNANA
04:00 8.7 7.2 90 0.0 20 6   102.31     LegendNANA
05:00 9.1 7.6 90 0.0 22 8   102.28     LegendNANA
06:00 9.3 7.8 90 0.0 24 9   102.25     LegendNANA
07:00 9.1 7.9 92 0.0 26 8   102.26     LegendNANA
08:00 9.1 7.9 92 0.0 26 9   102.27     LegendNANA
09:00 9.2 7.7 91 0.0 25 9   102.25     LegendNANA
10:00 9.7 7.9 88 0.0 25 13   102.16     LegendNANA
11:00 11.3 8.2 81 0.0 25 14   102.11     LegendNANA
12:00 12.4 8.7 78 0.0 26 12   102.01     LegendNANA
13:00 13.5 9.4 76 0.0 25 12   101.91     LegendNANA
14:00 15.0 9.6 70 0.0 24 11   101.84     LegendNANA
15:00 15.0 9.8 71 0.0 23 11   101.84     LegendNANA
16:00 14.6 9.9 74 0.0 23 7   101.85     LegendNANA
17:00 12.3 9.5 83 0.0 23 5   101.84     LegendNANA
18:00 10.0 9.2 94 0.0 22 9   101.83     LegendNANA
19:00 9.7 9.1 96 0.0 29 3   101.82     LegendNANA
20:00 9.7 8.7 93 0.0 27 3   101.81     LegendNANA
21:00 7.5 6.7 95 0.0 0 1   101.83     LegendNANA
22:00 7.4 6.8 96 0.0 31 3   101.84     LegendNANA
23:00 6.8 6.1 95 0.0   0   101.82     LegendNANA

Notes on Data Quality.

Legend

  • E = Estimated
  • M = Missing
  • NA = Not Available*
  • [empty] = Indicates an unobserved value
Date modified: